,

(GMT )
Al Udeid

Weather History for KQIR - March, 2014

Change the Weather History Date:

Friday, March 21, 2014

  Actual Average Record
Temperature  
Mean Temperature 80 °F -  
Max Temperature 89 °F - - ()
Min Temperature 71 °F - - ()
Cooling Degree Days 15    
Growing Degree Days 30 (Base 50)    
Moisture  
Dew Point 52 °F    
Average Humidity 39    
Maximum Humidity 63    
Minimum Humidity 24    
Precipitation  
Precipitation 0.00 in - - ()
Sea Level Pressure  
Sea Level Pressure 29.83 in    
Wind  
Wind Speed 9 mph ()    
Max Wind Speed 18 mph    
Max Gust Speed 21 mph    
Visibility 6.2 miles    
Events      
Averages and records for this station are not official NWS values.
T = Trace of Precipitation, MM = Missing Value Source: Averaged Metar Reports

Daily Weather History Graph

Daily Weather History Graph

Search for Another Location

Airport or City:

Trip Planner

Search our weather history database for the weather conditions in past years. The results will help you decide how hot, cold, wet, or windy it might be!

Date:

Astronomy

Mar. 21, 2014 Rise Set
Actual Time 5:38 AM +03 5:46 PM +03
Civil Twilight 5:15 AM +03 6:09 PM +03
Nautical Twilight 4:48 AM +03 6:35 PM +03
Astronomical Twilight 4:21 AM +03 7:02 PM +03
Moon 10:15 PM +03 (3/21) 8:37 AM +03 (3/21)
Length of Visible Light 12h 53m
Length of Day
12h 08m
Waning Gibbous, 78% of the Moon is Illuminated
Mar 21
Waning Gibbous
Mar 24
Last Quarter
Mar 30
New
Apr 7
First Quarter
Apr 15
Full

Hourly Weather History & Observations

Time (+03) Temp. Heat Index Dew Point Humidity Pressure Visibility Wind Dir Wind Speed Gust Speed Precip Events Conditions
12:55 AM 72.5 °F - 53.1 °F 50% 29.83 in 6.2 mi ENE 6.9 mph - N/A   Clear
1:55 AM 73.0 °F - 46.9 °F 39% 29.83 in 6.2 mi NE 6.9 mph - N/A   Clear
2:55 AM 73.2 °F - 45.7 °F 37% 29.83 in 6.2 mi NE 8.1 mph - N/A   Clear
3:55 AM 72.1 °F - 48.2 °F 43% 29.84 in 6.2 mi NNE 5.8 mph - N/A   Clear
4:55 AM 71.6 °F - 50.9 °F 48% 29.85 in 6.2 mi ENE 5.8 mph - N/A   Clear
5:55 AM 71.6 °F - 53.8 °F 53% 29.87 in 6.2 mi NE 6.9 mph - N/A   Clear
6:55 AM 73.9 °F - 52.3 °F 47% 29.88 in 6.2 mi ENE 4.6 mph - N/A   Clear
7:55 AM 77.9 °F - 53.1 °F 42% 29.90 in 6.2 mi ENE 9.2 mph - N/A   Clear
8:55 AM 81.0 °F 80.4 °F 53.4 °F 38% 29.92 in 6.2 mi NE 9.2 mph - N/A   Clear
9:55 AM 84.6 °F - 50.9 °F 31% 29.91 in 6.2 mi NE 10.4 mph - N/A   Clear
10:55 AM 87.8 °F - 48.4 °F 26% 29.88 in 6.2 mi ENE 18.4 mph - N/A   Clear
11:55 AM 88.9 °F - 48.2 °F 25% 29.86 in 6.2 mi ENE 13.8 mph - N/A   Clear
12:55 PM 89.6 °F - 48.2 °F 24% 29.82 in 6.2 mi ENE 13.8 mph 20.7 mph N/A   Clear
1:07 PM 89.6 °F - 47.8 °F 24% 29.82 in 6.2 mi ENE 13.8 mph 20.7 mph N/A   Clear
1:59 PM 89.6 °F - 47.8 °F 24% 29.82 in 6.2 mi ENE 13.8 mph 20.7 mph N/A   Clear
2:55 PM 88.7 °F - 49.1 °F 25% 29.78 in 6.2 mi ENE 15.0 mph - N/A   Clear
3:55 PM 85.6 °F - 49.5 °F 29% 29.77 in 6.2 mi NE 16.1 mph - N/A   Clear
4:06 PM 85.6 °F - 49.5 °F 29% 29.77 in 6.2 mi NE 16.1 mph - N/A   Clear
4:55 PM 82.6 °F - 52.2 °F 35% 29.77 in 6.2 mi NE 15.0 mph - N/A   Clear
5:55 PM 79.5 °F - 52.0 °F 38% 29.77 in 6.2 mi NNE 11.5 mph - N/A   Clear
6:55 PM 79.0 °F - 54.3 °F 42% 29.78 in 6.2 mi NNE 12.7 mph - N/A   Clear
7:55 PM 78.4 °F - 54.7 °F 44% 29.79 in 6.2 mi North 10.4 mph - N/A   Clear
8:55 PM 75.2 °F - 54.7 °F 49% 29.80 in 6.2 mi North 15.0 mph - N/A   Clear
9:55 PM 72.3 °F - 59.0 °F 63% 29.79 in 6.2 mi North 18.4 mph - N/A   Clear
10:55 PM 72.7 °F - 58.3 °F 60% 29.80 in 6.2 mi NNW 17.3 mph - N/A   Scattered Clouds
11:55 PM 73.0 °F - 57.7 °F 59% 29.81 in 6.2 mi NNW 18.4 mph - N/A   Mostly Cloudy